Location: Cella
(44.7333°N, 10.5667°E)
Time: 23:17:30
(UTC+00:00)

Cosmos 1777 Rocket - Pass Details

Date: 18 June 2021
Orbit: 757 x 776 km, 74.0° (Epoch: 29 July)

Event Time Altitude Azimuth Distance (km) Brightness Sun altitude
Rises 22:47:06 0° 340° (NNW) 3,260 8.7 -21.5°
Reaches altitude 10° 22:49:30 10° 342° (NNW) 2,330 7.6 -21.5°
Maximum altitude 22:54:48 73° 67° (ENE) 813 4.1 -21.6°
Enters shadow 22:56:28 44° 141° (SE) 1,065 4.3 -21.6°
